Regional Weather Roundup
Issued by NWS

Home | Current Version | Previous Version | Graphics & Text | Print | Product List | Glossary On
Versions: 1 2 3 4 5 6 7 8 9 10 11 12 13 14 15 16 17 18 19 20 21 22 23 24 25 26 27 28 29 30 31 32 33 34 35 36 37 38 39 40 41 42 43 44 45 46 47 48 49 50
000
ASUS43 KMKX 282059
RWRWI

WISCONSIN REGIONAL WEATHER ROUNDUP
NATIONAL WEATHER SERVICE MILWAUKEE/SULLIVAN WI
400 PM CDT SAT MAR 28 2015

NOTE: "FAIR" INDICATES FEW OR NO CLOUDS BELOW 12,000 FEET WITH NO
SIGNIFICANT WEATHER AND/OR OBSTRUCTIONS TO VISIBILITY.

WIZ001-002-006>008-014>016-023>028-282200-
NORTHWEST WISCONSIN

CITY           SKY/WX    TMP DP  RH WIND       PRES   REMARKS
SUPERIOR ARPT  SUNNY     45  10  24 SW16      30.08F
ASHLAND        SUNNY     45   6  20 SW14G22   30.10F
HAYWARD        SUNNY     41   9  26 S16G22    30.10F
SIREN          SUNNY     43   6  22 SW13G18   30.12F
CUMBERLAND     SUNNY     37  10  32 SW18      30.13F WCI  27
RICE LAKE      SUNNY     42   8  25 S13       30.16F
CHETEK         SUNNY     41  11  28 SE14G20   30.15F
LADYSMITH      SUNNY     41  11  29 SW9G16    30.17F
EAU CLAIRE     NOT AVBL
MENOMONIE      SUNNY     42   8  24 S9        30.18F
NEW RICHMOND   SUNNY     41  13  32 S15       30.15F
OSCEOLA        SUNNY     42  15  32 S17       30.17F
$$

WIZ003>005-009-010-017-018-282200-
NORTH CENTRAL WISCONSIN

CITY           SKY/WX    TMP DP  RH WIND       PRES   REMARKS
MANITOWISH WTR SUNNY     39   8  27 SW9G16    30.10F WCI  33
ARBOR VITAE    SUNNY     39  10  29 W13G18    30.11F WCI  32
WOODRUFF       SUNNY     39  10  29 W13G18    30.11F WCI  32
RHINELANDER    SUNNY     39   9  29 SW10G20   30.13F WCI  32
EAGLE RIVER    SUNNY     38   8  28 W10G21    30.11F WCI  31
LAND O LAKES   SUNNY     40   4  22 SW6       30.11F
PHILLIPS       SUNNY     38   8  28 SW10G18   30.13F WCI  31
TOMAHAWK       SUNNY     37   9  30 CALM      30.16F
MEDFORD        SUNNY     36  14  41 SW10      30.16F WCI  28
MERRILL        SUNNY     38  13  35 W8        30.17F WCI  33
$$

WIZ029-030-035-036-043>047-282200-
CENTRAL WISCONSIN

CITY           SKY/WX    TMP DP  RH WIND       PRES   REMARKS
WAUSAU         SUNNY     39   9  29 SW12      30.16F WCI  32
MOSINEE        SUNNY     37  10  32 S12G20    30.19F WCI  30
MARSHFIELD     SUNNY     42   8  24 S13       30.17F
STEVENS POINT  SUNNY     38   8  28 SW6       30.19F WCI  33
WAUPACA        SUNNY     44   3  18 SW5       30.22F
WAUTOMA        NOT AVBL
WISC RAPIDS    SUNNY     41   3  20 SW12      30.21F
CAMP DOUGLAS   SUNNY     41   9  26 SW13      30.20F
$$

WIZ011>013-019>022-031-037>040-048>050-282200-
NORTHEAST WISCONSIN

CITY           SKY/WX    TMP DP  RH WIND       PRES   REMARKS
ANTIGO         SUNNY     35  12  38 SW9       30.17F WCI  28
SHAWANO        SUNNY     41  12  30 SW6       30.22F
OCONTO         SUNNY     37  17  43 S9        30.22F WCI  30
STURGEON BAY   MOSUNNY   34  21  60 S12G17    30.26F WCI  25
GREEN BAY      SUNNY     37  19  48 SW10G18   30.24F WCI  30
MANITOWOC      NOT AVBL
APPLETON       SUNNY     37  10  32 S14       30.23F WCI  29
CLINTONVILLE   SUNNY     39  10  30 S5        30.22F
OSHKOSH        SUNNY     39  11  31 S9G22     30.24F WCI  33
$$

WIZ032>034-041-042-053>061-282200-
SOUTHWEST WISCONSIN

CITY           SKY/WX    TMP DP  RH WIND       PRES   REMARKS
LA CROSSE      SUNNY     43  11  27 S9        30.22F
SPARTA         SUNNY     40   8  26 S12       30.23F WCI  33
VIROQUA        SUNNY     37  13  38 S7        30.22F WCI  31
BOSCOBEL       SUNNY     40  14  34 S10G16    30.26F WCI  33
PRAIRIE DU CHI SUNNY     39  10  30 SE7       30.25F WCI  34
PLATTEVILLE    SUNNY     39  12  33 S5        30.25F
$$

WIZ056-057-062-063-064-067-068-282200-
SOUTH CENTRAL WISCONSIN

CITY           SKY/WX    TMP DP  RH WIND       PRES   REMARKS
REEDSBURG      SUNNY     38  13  35 SW13      30.24S WCI  31
BARABOO/DELLS  SUNNY     39  10  30 SW8       30.23F WCI  33
LONE ROCK      NOT AVBL
MINERAL POINT  SUNNY     37  12  35 S3        30.25F
MADISON        SUNNY     37   9  31 SW8       30.26F WCI  31
MIDDLETON      SUNNY     39   7  26 SW7       30.27S WCI  34
WATERTOWN      SUNNY     38  10  31 SW6       30.26F WCI  34
MONROE         SUNNY     37  16  41 S3        30.25F
JANESVILLE     SUNNY     41   9  26 SW8       30.27F
$$

WIZ051-052-058>065-066-070>072-282200-
SOUTHEAST WISCONSIN

CITY           SKY/WX    TMP DP  RH WIND       PRES   REMARKS
MILWAUKEE      MOSUNNY   34  10  37 SE14      30.29F WCI  25
WAUKESHA       MOSUNNY   37  10  32 SW9       30.27F WCI  31
MILWAUKEE/TIMM SUNNY     36  14  41 SE9       30.28F WCI  29
RACINE         SUNNY     31  12  45 SE12      30.32S WCI  22
BURLINGTON     SUNNY     37  12  35 S5        30.27F WCI  33
KENOSHA        SUNNY     33  14  45 SE9       30.30S WCI  25
FOND DU LAC    SUNNY     39   7  26 W9        30.24F WCI  33
SHEBOYGAN      SUNNY     35  21  56 S15       30.26F WCI  25
WEST BEND      SUNNY     37   9  30 SW8       30.25F WCI  31
JUNEAU         SUNNY     37  10  33 S8        30.26F WCI  31
$$

LSZ147-162-282200-
LAKE SUPERIOR

STATION/POSITION TIME  TEMP    WIND        PRES    WAVE
                       AIR SEA DIR/SP/G            HT/PER
                 (UTC) (F)     (DEG/KT/KT) (MB)    (FT/S)
DEVILS ISLAND    2000   31      70/  5/  6 1021.4F
PORT WING        2000   33      20/  8/  8 1020.0F
SAXON HARBOR     2000   34      50/  8/ 11 1020.0
$$

LMZ867-665-643>646-282200-
LAKE MICHIGAN

STATION/POSITION TIME  TEMP    WIND        PRES    WAVE
                       AIR SEA DIR/SP/G            HT/PER
                 (UTC) (F)     (DEG/KT/KT) (MB)    (FT/S)
NORTHPORT PIER   2000   28     150/ 11/ 17 1024.4F
SISTER BAY       1917   41     270/ 10/ 12   N/A
KEWAUNEE LAKESHO 2000   29     170/ 14/ 17 1024.3F
SHEBOYGAN LAKESH 2000   28     150/ 12/ 13 1026.8F
PORT WASHINGTON  2000   31     160/ 10/ 12 1026.8
MILWAUKEE LAKESH 2000   28     140/ 12/ 14   N/A
KENOSHA   LAKESH 2000   30     130/  9/ 11 1026.4F
$$

TC  - TEMPERATURE IN CELSIUS
VSB - VISIBILITY IN STATUTE MILES
WCI - WIND CHILL INDEX
HX  - HEAT INDEX




USA.gov is the U.S. government's official web portal to all federal, state and local government web resources and services.